Content
SEND FEEDBACK

Daily
Averages
Monthly
Summary
United States of America

WEST MANCHESTER, OHIO


Home > North America > United States > Ohio
Elevation: 1090 feet     Latitude: 39 52N     Longitude: 084 38W

WEATHER
 
SELECT A DAY
Number of Records: 184,155;   Date Range: 10/15/97 - 9/22/14
 
SHARE

PRINT THIS DATA

[ ← Previous Day ]
WEATHER ALMANAC - FEBRUARY 13, 2013
[ Next Day → ]
[ °C ]   °F
Weather ElementAverageHighLow
Temperature29 °F35.1 °F (4:53 pm)26.6 °F (5:19 am)
Dewpoint25.9 °F27 °F (1:53 am)24.1 °F (10:53 am)
Humidity88.3 %100 % (5:38 am)67 % (4:53 pm)
Barometer29.83 in29.90 in (2:53 am)29.76 in (1:31 pm)
Wind Speed5.9 mph11.5 mph (5:19 am)
Weather ElementAverage
Visibility5 mi
Wind DirectionSSE (149.4 °)

Weather ElementTotal
Precipitation---
Heating Degree Days34.2 (Base 65)
Averaged from 36 records on February 13, 2013
WEATHER CONDITIONS BREAKOUT
WIND DIRECTION BREAKOUT
WEATHER BY HOUR - FEBRUARY 13, 2013
[ °C ]   °F
Local TimeTemperatureDewpointHumidityBarometerVisibilityWind DirectionWind SpeedGust SpeedPrecipitationEventsConditions
1:53 AM30.9 °F27.0 °F85 %29.89 in7.0 miNNE (20°)8.1 mphClear
2:53 AM28.9 °F26.1 °F89 %29.90 in6.0 miNNE (20°)5.8 mphClear
3:53 AM28.0 °F26.1 °F92 %29.88 in6.0 miNE (40°)4.6 mphPartly Cloudy
4:53 AM27.0 °F25.0 °F92 %29.86 in6.0 miNNE (20°)8.1 mphMostly Cloudy
5:19 AM26.6 °F24.8 °F93 %29.83 in5.0 miNNE (20°)11.5 mphMostly Cloudy
5:28 AM26.6 °F24.8 °F93 %29.83 in4.0 miNorth (10°)10.4 mphMostly Cloudy
5:38 AM26.6 °F26.6 °F100 %29.83 in4.0 miNNE (30°)8.1 mphOvercast
5:53 AM27.0 °F26.1 °F96 %29.83 in4.0 miNNE (30°)8.1 mphOvercast
6:21 AM28.4 °F26.6 °F93 %29.80 in4.0 miNNE (30°)6.9 mphOvercast
6:53 AM28.0 °F26.1 °F92 %29.80 in5.0 miNNE (30°)9.2 mphOvercast
7:53 AM28.0 °F26.1 °F92 %29.79 in3.0 miNNE (30°)6.9 mphOvercast
8:53 AM28.9 °F25.0 °F85 %29.82 in5.0 miNorth (10°)5.8 mphOvercast
9:03 AM28.4 °F24.8 °F86 %29.81 in5.0 miNorth (360°)4.6 mphOvercast
9:53 AM28.9 °F25.0 °F85 %29.85 in5.0 miNNW (330°)6.9 mphOvercast
10:53 AM28.9 °F24.1 °F82 %29.84 in6.0 miNW (320°)4.6 mphHaze
11:38 AM28.4 °F24.8 °F86 %29.81 in1.8 miNNW (340°)4.6 mph0.00 inSnowLight Snow
11:48 AM28.4 °F26.6 °F93 %29.80 in0.5 miCalm0.00 inFog-SnowSnow
11:49 AM28.9 °F26.1 °F89 %29.83 in0.5 miCalm0.00 inFog-SnowSnow
11:56 AM28.4 °F26.6 °F93 %29.79 in0.8 miCalm0.00 inSnowLight Snow
12:16 PM28.4 °F26.6 °F93 %29.78 in1.2 miCalm0.00 inSnowLight Snow
12:24 PM28.4 °F26.6 °F93 %29.78 in2.0 miCalm0.00 inSnowLight Snow
12:33 PM28.4 °F26.6 °F93 %29.78 in2.0 miNW (320°)4.6 mph0.00 inSnowLight Snow
12:53 PM28.9 °F27.0 °F92 %29.80 in4.0 miWNW (290°)6.9 mph0.00 inOvercast
1:31 PM30.2 °F26.6 °F86 %29.76 in5.0 miWest (280°)4.6 mphOvercast
1:53 PM30.9 °F27.0 °F85 %29.79 in5.0 miNW (310°)6.9 mphOvercast
2:39 PM30.2 °F26.6 °F86 %29.76 in7.0 miWNW (300°)6.9 mphOvercast
2:53 PM30.9 °F26.1 °F82 %29.79 in7.0 miNNW (330°)9.2 mphOvercast
3:53 PM33.1 °F26.1 °F75 %29.80 in9.0 miWest (270°)6.9 mphScattered Clouds
4:53 PM35.1 °F25.0 °F67 %29.81 in10.0 miWSW (240°)3.5 mphClear
5:53 PM34.0 °F25.0 °F70 %29.82 in10.0 miSW (220°)4.6 mphClear
6:53 PM30.9 °F26.1 °F82 %29.85 in9.0 miSSW (200°)6.9 mphClear
7:53 PM28.0 °F26.1 °F92 %29.87 in7.0 miSouth (190°)8.1 mphClear
8:53 PM27.0 °F25.0 °F92 %29.88 in5.0 miSouth (190°)8.1 mphClear
9:53 PM28.9 °F26.1 °F89 %29.90 in5.0 miSSW (200°)6.9 mphClear
10:53 PM28.0 °F26.1 °F92 %29.89 in6.0 miSSW (200°)6.9 mphPartly Cloudy
11:53 PM27.0 °F25.0 °F92 %29.90 in6.0 miSSW (200°)6.9 mphClear
Hourly data recorded from KMGY, located miles away from West Manchester, Ohio







STORIES FROM OUR PARTNERS